This is the latest recevied weather packets stored in our database for station/object AA0PB. If no packets are shown the sender has not sent any weather packets the latest 10 day(s).
| Time | Temp. | Humidity | Pressure | Rain* | Wind** | Luminosity | Snow |
|---|---|---|---|---|---|---|---|
| 1777751750 | 16.11° C | 74% | 1015.1 hPa | 0 mm | - | 773 W/m² | - |
| 1777751445 | 15.56° C | 75% | 1015.4 hPa | 0 mm | - | 785 W/m² | - |
| 1777751142 | 15° C | 77% | 1015.4 hPa | 0 mm | - | 299 W/m² | - |
| 1777750839 | 14.44° C | 78% | 1015.8 hPa | 0 mm | - | 663 W/m² | - |
| 1777750536 | 13.89° C | 80% | 1015.7 hPa | 0 mm | - | 396 W/m² | - |
| 1777750233 | 13.89° C | 81% | 1015.9 hPa | 0 mm | - | 260 W/m² | - |
| 1777749928 | 13.89° C | 81% | 1015.7 hPa | 0 mm | - | 205 W/m² | - |
| 1777749626 | 13.33° C | 82% | 1015.6 hPa | 0 mm | - | 184 W/m² | - |
| 1777749323 | 13.33° C | 83% | 1016 hPa | 0 mm | - | 157 W/m² | - |
| 1777749021 | 13.33° C | 82% | 1015.6 hPa | 0 mm | - | 125 W/m² | - |
| 1777748718 | 13.33° C | 82% | 1015.7 hPa | 0 mm | - | 131 W/m² | - |
| 1777748415 | 13.33° C | 82% | 1016.3 hPa | 0 mm | - | 155 W/m² | - |
| 1777748110 | 13.33° C | 82% | 1016.3 hPa | 0 mm | - | 176 W/m² | - |
| 1777747807 | 13.33° C | 82% | 1016.3 hPa | 0 mm | - | 216 W/m² | - |
| 1777747502 | 13.33° C | 81% | 1016.5 hPa | 0 mm | - | 209 W/m² | - |
| 1777747199 | 13.33° C | 80% | 1016.3 hPa | 0 mm | - | 154 W/m² | - |
| 1777746895 | 12.78° C | 79% | 1016.4 hPa | 0 mm | - | 139 W/m² | - |
| 1777746590 | 13.33° C | 79% | 1016.2 hPa | 0 mm | - | 118 W/m² | - |
| 1777746286 | 13.33° C | 78% | 1016.2 hPa | 0 mm | - | 106 W/m² | - |
| 1777745982 | 13.33° C | 78% | 1016.3 hPa | 0 mm | - | 115 W/m² | - |
| 1777745680 | 13.89° C | 77% | 1016.2 hPa | 0 mm | - | 302 W/m² | - |
| 1777745379 | 13.33° C | 78% | 1016.4 hPa | 0 mm | - | 222 W/m² | - |
| 1777745076 | 13.33° C | 79% | 1016.3 hPa | 0 mm | - | 106 W/m² | - |
| 1777744772 | 12.78° C | 79% | 1016.6 hPa | 0 mm | - | 102 W/m² | - |
| 1777744466 | 13.89° C | 77% | 1016.8 hPa | 0 mm | - | 212 W/m² | - |
* Rain latest hour (hover to see other rain measurements)
** Current wind speed in m/s (hover to see current wind gust speed)